Location: La Fredeussais
(48.1780°N, 1.3980°W)
Time: 16:45:59
(UTC+00:00)

Cosmos 2084 Rocket - Pass Details

Date: 09 May 2021
Orbit: 521 x 659 km, 62.8° (Epoch: 24 June)

Event Time Altitude Azimuth Distance (km) Brightness Sun altitude
Rises 23:14:15 0° 318° (NW) 2,770 7.9 -23.3°
Reaches altitude 10° 23:16:27 10° 320° (NW) 1,892 6.9 -23.4°
Maximum altitude 23:20:44 80° 47° (NE) 609 3.4 -23.6°
Enters shadow 23:20:53 78° 80° (E) 613 3.4 -23.6°
